[[{"header":{"parameterUnit":"m.s-1","parameterCategory":1,"la1":30.2991,"la2":30.254,"lo1":-89.0895,"lo2":-89.0444,"dy":0.0017,"dx":0.0017,"nx":28,"ny":28,"refTime":"2025-05-28T03:00:00:Z","depth":0,"parameterNumber":2,"parameterNumberName":"U-component_of_WINDS"},"data":[0,0,0,0,0,0,0,0,0,0,0,0,0,0,0,0,0,0,0,0,0,0,0,0,0,0,0,0,0,0,0,0,0,0,0,0,0,0,0,0,0,0,0,0,0,0,0,0,0,0,0,0,0,0,0,0,0,0,2.6238,2.6239,0,2.629,2.6291,2.6291,2.6236,2.6234,2.6232,2.623,2.6285,2.6289,2.6292,0,0,0,0,0,0,0,0,0,0,0,0,0,2.6091,2.6094,2.6238,2.6239,2.624,2.629,2.6291,2.6292,2.6237,2.6234,2.6232,2.6229,2.6284,2.6288,2.6292,0,0,0,0,0,0,0,0,0,0,0,0,0,2.615,2.6095,2.6238,2.6218,2.6217,2.629,2.6291,2.6292,2.6237,2.6234,2.6231,2.6228,2.6283,2.6288,2.6293,2.6389,0,0,2.6309,2.6311,0,0,0,0,0,0,0,0,2.6147,2.6156,2.6221,2.622,2.6219,2.6254,2.6259,2.6324,2.6238,2.623,2.623,2.6226,2.6277,2.6283,2.63,2.6391,2.6394,2.6309,2.6312,2.6315,2.6316,0,0,0,0,0,0,0,2.6143,2.6153,2.6259,2.6222,2.622,2.6206,2.6211,2.6271,2.6271,2.623,2.6226,2.6233,2.6276,2.6295,2.6301,2.6394,2.6309,2.6314,2.6317,2.6319,2.6562,2.6565,0,0,0,0,0,0,2.6141,2.615,2.6257,2.626,2.6174,2.6212,2.6217,2.6246,2.627,2.6271,2.6236,2.623,2.6288,2.6295,2.6302,2.6412,2.6315,2.6319,2.6322,2.6558,2.6562,2.6566,0,0,0,0,0,0,2.6138,2.6151,2.6255,2.6204,2.6216,2.6218,2.625,2.6248,2.6267,2.6274,2.6274,2.6255,2.6285,2.6295,2.6366,2.6414,2.6322,2.6326,2.6554,2.656,2.6564,2.6635,0,0,0,0,0,0,2.6134,2.615,2.6187,2.6205,2.6219,2.6319,2.6253,2.6252,2.6276,2.6269,2.6292,2.6293,2.6284,2.6359,2.6371,2.6419,2.6331,2.655,2.6557,2.6563,2.6629,2.6642,2.6654,0,0,0,0,0,2.6129,2.6207,2.6189,2.6203,2.6266,2.6322,2.633,2.6317,2.628,2.6316,2.632,2.6292,2.6407,2.6367,2.638,2.643,2.6547,2.6555,2.6562,2.6623,2.664,2.6654,0,0,0,0,0,0,2.6196,2.6209,2.619,2.6276,2.6298,2.6313,2.6359,2.6336,2.6369,2.6362,2.6345,2.6351,2.6425,2.6435,2.639,2.6521,2.6471,2.6481,2.6512,2.6528,2.654,2.6536,2.6335,0,0,0,0,0,2.6221,2.6266,2.6274,2.635,2.6361,2.6358,2.6382,2.637,2.6392,2.6402,2.6411,2.6434,2.6475,2.6502,2.654,2.663,2.6632,2.6671,2.6683,2.6693,2.6702,2.6746,2.6762,2.6591,2.6591,2.6591,0,0,2.6273,2.6285,2.6315,2.6363,2.6379,2.6424,2.6366,2.6418,2.6451,2.641,2.6476,2.6484,2.6508,2.6588,2.6624,2.6599,2.675,2.6703,2.6711,2.6715,2.6756,2.6772,2.6786,2.6596,2.6595,2.6594,0,0,2.639,2.6405,2.6467,2.6483,2.6506,2.6503,2.6518,2.6535,2.6537,2.6604,2.6572,2.6611,2.6683,2.67,2.6718,2.6837,2.6811,2.685,2.6915,2.6958,2.6971,2.6983,2.7022,2.7037,2.6859,2.6859,2.6859,0,2.6452,2.6519,2.6503,2.6555,2.6575,2.6538,2.6599,2.6616,2.6651,2.6666,2.6637,2.6722,2.6737,2.6817,2.6846,2.6863,2.6878,2.6847,2.697,2.6982,2.6993,2.703,2.7045,2.6864,2.6863,2.6863,2.6862,0,2.6592,2.6639,2.6686,2.6718,2.6744,2.6801,2.6792,2.682,2.6805,2.6804,2.687,2.6885,2.6923,2.6942,2.6929,2.702,2.7003,2.6973,2.6921,2.7014,2.7048,2.7063,2.687,2.6868,2.6867,2.6866,0,0,2.6756,2.6774,2.6791,2.6803,2.6824,2.686,2.6914,2.695,2.6973,2.6998,2.7041,2.71,2.707,2.7091,2.7079,2.7117,2.7205,2.7081,2.7081,2.7101,2.7303,2.7324,2.7341,2.7188,2.7191,2.7193,2.73,0,2.6871,2.6963,2.6947,2.7036,2.7077,2.704,2.7086,2.7103,2.7103,2.7137,2.7137,2.7178,2.7138,2.7149,2.7185,2.7187,2.7245,2.7179,2.7227,2.7229,2.722,2.736,2.7383,2.7483,2.7313,2.7316,2.7317,0,2.7018,2.7044,2.7137,2.7147,2.7163,2.7205,2.7234,2.7268,2.7286,2.7283,2.7304,2.7283,2.7335,2.7283,2.7353,2.7308,2.7326,2.733,2.7333,2.7336,2.7278,2.7364,2.7515,2.7529,2.7339,2.7337,2.7336,0,2.7123,2.7183,2.7245,2.7257,2.7271,2.73,2.7308,2.7322,2.7343,2.7369,2.7382,2.7414,2.7431,2.7456,2.7444,2.7408,2.7515,2.7463,2.7512,2.7513,2.7536,2.7534,2.769,2.7551,2.7551,2.7551,2.7551,0,2.7253,2.731,2.7291,2.733,2.7391,2.7372,2.7434,2.7437,2.7449,2.7486,2.7457,2.7492,2.7475,2.7509,2.75,2.7557,2.7566,2.7564,2.756,2.7565,2.7565,2.7576,2.7568,2.7555,2.7554,2.7553,2.7553,0,2.7381,2.7372,2.7436,2.7442,2.7445,2.749,2.7495,2.753,2.7526,2.7573,2.7583,2.7577,2.7614,2.7605,2.7647,2.7641,2.7712,2.7701,2.7705,2.7702,2.7751,2.7745,2.7917,2.7938,2.7788,2.779,2.7791,0,2.7464,2.7506,2.7516,2.7537,2.7546,2.7582,2.7602,2.7584,2.7606,2.7626,2.7658,2.7692,2.7719,2.778,2.778,2.7811,2.7799,2.7857,2.7803,2.7805,2.7796,2.7793,2.7796,2.7867,2.7869,2.787,2.7871,0,2.7609,2.7601,2.7631,2.7657,2.7681,2.7703,2.7721,2.774,2.7723,2.7749,2.7786,2.7806,2.7846,2.788,2.7908,2.7914,2.789,2.7888,2.7901,2.7905,2.7905,2.7903,2.7732,2.7884,2.7883,2.7882,2.7881,2.7881,2.7715,2.7749,2.776,2.7793,2.7804,2.782,2.7852,2.785,2.788,2.791,2.7898,2.7939,2.7952,2.7986,2.7996,2.8027,2.8005,2.8025,2.8029,2.8034,2.8038,2.7901,2.8033,2.8032,2.8032,2.8032,2.8032,0,2.7857,2.7861,2.7891,2.7915,2.794,2.7913,2.793,2.7953,2.799,2.8003,2.8028,2.8069,2.81,2.8101,2.813,2.8155,2.8144,2.8163,2.816,2.8161,2.8058,2.8043,2.8171,2.8171,2.8171,2.8171,2.8171,2.8171,2.7933,2.7988,2.7981,2.804,2.8043,2.8082,2.8094,2.8108,2.8118,2.8164,2.8189,2.8189,2.8196,2.8225,2.8252,2.8251,2.8262,2.8285,2.828,2.8183,2.8169,2.8156,2.8141,2.8288,2.8288,2.838,2.8381,2.8381]},{"header":{"parameterUnit":"m.s-1","parameterCategory":1,"la1":30.2991,"la2":30.254,"lo1":-89.0895,"lo2":-89.0444,"dy":0.0017,"dx":0.0017,"nx":28,"ny":28,"refTime":"2025-05-28T03:00:00:Z","depth":0,"parameterNumber":3,"parameterNumberName":"V-component_of_WINDS"},"data":[0,0,0,0,0,0,0,0,0,0,0,0,0,0,0,0,0,0,0,0,0,0,0,0,0,0,0,0,0,0,0,0,0,0,0,0,0,0,0,0,0,0,0,0,0,0,0,0,0,0,0,0,0,0,0,0,0,0,2.6476,2.6477,0,2.6557,2.6558,2.6559,2.6591,2.6591,2.6591,2.659,2.667,2.6672,2.6674,0,0,0,0,0,0,0,0,0,0,0,0,0,2.6341,2.6344,2.6476,2.6477,2.6478,2.6557,2.6558,2.656,2.6591,2.6591,2.6591,2.659,2.6669,2.6672,2.6674,0,0,0,0,0,0,0,0,0,0,0,0,0,2.6409,2.6345,2.6475,2.6503,2.6506,2.6557,2.6558,2.656,2.6591,2.6591,2.6591,2.659,2.6668,2.6671,2.6675,2.6703,0,0,2.6685,2.6687,0,0,0,0,0,0,0,0,2.6405,2.6414,2.6498,2.6501,2.6505,2.6564,2.654,2.6608,2.6591,2.6559,2.659,2.659,2.6634,2.6641,2.6657,2.6706,2.671,2.6686,2.6688,2.6689,2.669,0,0,0,0,0,0,0,2.64,2.641,2.6508,2.6499,2.6504,2.651,2.6519,2.6553,2.6597,2.6562,2.6564,2.6574,2.6636,2.6653,2.6659,2.6711,2.6686,2.6689,2.6691,2.6692,2.6786,2.6786,0,0,0,0,0,0,2.6392,2.6406,2.6505,2.651,2.6453,2.6512,2.6523,2.6545,2.6597,2.6605,2.6574,2.6575,2.6647,2.6655,2.6662,2.6697,2.6689,2.6693,2.6695,2.6785,2.6786,2.6786,0,0,0,0,0,0,2.6389,2.64,2.6502,2.6459,2.6473,2.6515,2.654,2.6547,2.6564,2.6606,2.6614,2.6583,2.6647,2.6657,2.6692,2.67,2.6694,2.6697,2.6785,2.6785,2.6786,2.6768,0,0,0,0,0,0,2.6385,2.6399,2.6412,2.6459,2.6475,2.6533,2.6541,2.6549,2.657,2.6573,2.6617,2.6624,2.6648,2.6687,2.6696,2.6705,2.67,2.6784,2.6785,2.6786,2.6768,2.6767,2.6767,0,0,0,0,0,2.638,2.6402,2.6412,2.6424,2.6491,2.6533,2.6542,2.657,2.6571,2.6583,2.661,2.6623,2.6698,2.669,2.67,2.671,2.6784,2.6785,2.6786,2.6768,2.6767,2.6767,0,0,0,0,0,0,2.6353,2.6409,2.642,2.6459,2.6491,2.6539,2.6555,2.6569,2.66,2.6601,2.6633,2.6642,2.6675,2.6696,2.6687,2.6739,2.6741,2.6744,2.6724,2.6724,2.6724,2.6718,2.6703,0,0,0,0,0,2.6352,2.6383,2.643,2.6459,2.6475,2.6512,2.6531,2.655,2.6584,2.6597,2.6627,2.6658,2.6688,2.6707,2.6738,2.6771,2.678,2.6782,2.6782,2.6782,2.6784,2.6802,2.6803,2.6789,2.6789,2.6789,0,0,2.635,2.6384,2.6402,2.6455,2.6482,2.6511,2.6523,2.6554,2.6576,2.6601,2.6637,2.6659,2.6696,2.673,2.6746,2.6749,2.679,2.6783,2.6782,2.6785,2.6803,2.6804,2.6805,2.679,2.679,2.679,0,0,2.6361,2.639,2.6418,2.6445,2.6486,2.651,2.6516,2.6561,2.6578,2.6614,2.6633,2.6658,2.6711,2.6736,2.6755,2.6773,2.6786,2.6782,2.6781,2.6798,2.6799,2.68,2.6806,2.6808,2.6784,2.6784,2.6784,0,2.6352,2.6399,2.643,2.646,2.6482,2.6507,2.6534,2.6558,2.6606,2.662,2.6622,2.6687,2.6714,2.6753,2.6758,2.6773,2.678,2.6777,2.6797,2.6798,2.68,2.6805,2.6807,2.6783,2.6783,2.6783,2.6784,0,2.6386,2.6418,2.6435,2.6482,2.6506,2.6534,2.6567,2.6587,2.6604,2.6627,2.6662,2.6695,2.6732,2.6742,2.6758,2.6784,2.6784,2.6791,2.6794,2.68,2.6805,2.6808,2.6782,2.6782,2.6783,2.6783,0,0,2.6383,2.6446,2.6452,2.6473,2.652,2.6544,2.6572,2.661,2.6626,2.6658,2.6681,2.6724,2.6731,2.6753,2.6771,2.6786,2.6797,2.6791,2.6792,2.679,2.6826,2.682,2.6822,2.6806,2.6806,2.6807,2.6823,0,2.64,2.6454,2.6481,2.6522,2.6551,2.6575,2.6599,2.6629,2.6652,2.6678,2.6702,2.6731,2.6738,2.6751,2.6767,2.6792,2.6804,2.6792,2.6827,2.6827,2.6817,2.6826,2.682,2.6834,2.6825,2.6826,2.6826,0,2.6427,2.6459,2.6504,2.6546,2.6559,2.6581,2.6616,2.6642,2.6675,2.669,2.6714,2.6732,2.6761,2.6762,2.6801,2.6792,2.6807,2.6821,2.6823,2.6827,2.6827,2.683,2.6839,2.6841,2.683,2.683,2.6829,0,2.6419,2.6474,2.6508,2.6525,2.6575,2.6589,2.6611,2.6644,2.6664,2.6695,2.6708,2.6741,2.6758,2.6783,2.6808,2.6807,2.6844,2.6848,2.6856,2.6856,2.6864,2.6863,2.6875,2.6874,2.6874,2.6874,2.6874,0,2.6435,2.6461,2.6505,2.6525,2.6554,2.6585,2.6612,2.6635,2.6664,2.6688,2.671,2.6732,2.6765,2.679,2.681,2.6838,2.6846,2.6858,2.6863,2.6856,2.6855,2.6867,2.6866,2.6874,2.6874,2.6874,2.6874,0,2.6432,2.6462,2.65,2.6544,2.6556,2.6575,2.6612,2.6632,2.6655,2.6685,2.6694,2.6729,2.676,2.6788,2.6828,2.6841,2.687,2.6877,2.6859,2.6862,2.6869,2.6868,2.689,2.6894,2.689,2.689,2.689,0,2.6439,2.646,2.6507,2.6525,2.6546,2.6575,2.6596,2.6626,2.6646,2.6685,2.67,2.6732,2.676,2.6808,2.6836,2.6867,2.6874,2.6879,2.6878,2.687,2.6873,2.6872,2.6873,2.6879,2.6879,2.6878,2.6878,0,2.645,2.6464,2.6494,2.6529,2.6553,2.6582,2.6611,2.6624,2.6659,2.668,2.6713,2.6734,2.6776,2.6807,2.6841,2.6861,2.6875,2.6878,2.6882,2.6875,2.6864,2.687,2.6858,2.6878,2.6878,2.6878,2.6878,2.6878,2.6452,2.6471,2.6507,2.6539,2.6564,2.659,2.6611,2.6636,2.6664,2.6701,2.6717,2.6749,2.6781,2.6828,2.6847,2.6872,2.6875,2.688,2.6882,2.6882,2.6881,2.686,2.6878,2.6878,2.6878,2.6878,2.6878,0,2.6463,2.6487,2.6516,2.6556,2.6581,2.6594,2.6626,2.6645,2.6674,2.6703,2.673,2.6766,2.6797,2.6827,2.6859,2.6872,2.688,2.688,2.6879,2.6883,2.6877,2.687,2.6873,2.6873,2.6873,2.6873,2.6873,2.6873,2.6471,2.6504,2.6522,2.6566,2.659,2.6623,2.664,2.6664,2.6687,2.6727,2.6753,2.6773,2.6802,2.6836,2.6864,2.6872,2.6882,2.688,2.689,2.6883,2.6884,2.6884,2.6878,2.6882,2.6882,2.6894,2.6894,2.6894]}]]